Terug naar catalogus

STARLINK-31202

ActiefCommunicatieVLEO
NORAD 59042·PAYLOAD·🇺🇸 United States

Gelanceerd Feb 25, 2024 vanaf Cape Canaveral Space Force Station

Loading…

Volgende Passages (komende 24 uur)

TLE

VersSource: CelesTrak SupGP

Epoch: Sep 14, 2026, 20:56 UTC

1 59042C 24038V   26257.87270833  .00045046  00000+0  18064-2 0  2573
2 59042  43.0004  32.6402 0001427 268.7917 346.0695 15.24184938    13

Volg STARLINK-31202 in realtime met AllMySat

Download on the App Store